{"data":{"norad_id":41634,"epoch":"2026-09-20T04:30:12.172032Z","epoch_age_seconds":72246,"freshness":"FRESH","line1":"1 41634U 16043A   26263.18764088  .00000496  00000+0  49519-4 0  9993","line2":"2 41634  75.0011  99.1142 0007412 166.9486 193.1896 14.93752712555322","mean_motion":14.93752712,"eccentricity":0.0007412,"inclination_deg":75.0011,"raan_deg":99.1142,"arg_perigee_deg":166.9486,"mean_anomaly_deg":193.1896,"bstar":4.9519e-5,"rev_number":55532,"period_min":96.401498616995,"perigee_km":581.08490838874,"apogee_km":591.40891109654,"semimajor_km":6964.3839097426,"source":"CELESTRAK","updated_at":"2026-09-20T09:00:14.151239Z"}}